Photometre #845[NE_1.6_Dp] EastMalling_MO AOT

File : 20220921_845.hum

21/09/2022,06:39:32,TEMP=9.7,BA=5.68,STAT.A,ExtBa=12.20
21/09/2022,06:42:23,TEMP=10.1,BA=5.44,STAT.D,ExtBa=12.20
21/09/2022,06:44:23,TEMP=10.5,BA=5.44,STAT.A,ExtBa=12.20
21/09/2022,06:48:23,TEMP=10.4,BA=5.44,STAT.D,ExtBa=12.20
21/09/2022,06:50:23,TEMP=10.9,BA=5.44,STAT.A,ExtBa=12.10
21/09/2022,06:54:14,TEMP=10.9,BA=5.44,STAT.A,ExtBa=12.20
21/09/2022,06:57:23,TEMP=11.2,BA=5.44,STAT.D,ExtBa=12.10
21/09/2022,07:00:23,TEMP=11.4,BA=5.52,STAT.D,ExtBa=12.10
21/09/2022,07:02:23,TEMP=11.9,BA=5.52,STAT.A,ExtBa=12.10
21/09/2022,07:06:23,TEMP=11.7,BA=5.52,STAT.D,ExtBa=12.10
21/09/2022,07:09:23,TEMP=12.0,BA=5.52,STAT.D,ExtBa=12.10
21/09/2022,07:11:23,TEMP=12.4,BA=5.44,STAT.A,ExtBa=12.10
21/09/2022,07:15:23,TEMP=12.3,BA=5.44,STAT.D,ExtBa=12.10
21/09/2022,07:18:23,TEMP=12.6,BA=5.44,STAT.D,ExtBa=12.10
21/09/2022,07:20:39,TEMP=13.0,BA=5.44,STAT.B,ExtBa=12.10
21/09/2022,07:30:23,TEMP=13.9,BA=5.44,STAT.A,ExtBa=12.00
21/09/2022,07:33:11,TEMP=14.0,BA=5.44,STAT.A,ExtBa=12.10
21/09/2022,07:36:23,TEMP=14.1,BA=5.44,STAT.D,ExtBa=12.10
21/09/2022,07:38:36,TEMP=14.6,BA=5.44,STAT.A,ExtBa=12.10
21/09/2022,07:42:23,TEMP=14.6,BA=5.40,STAT.D,ExtBa=12.10
21/09/2022,07:45:24,TEMP=15.0,BA=5.40,STAT.D,ExtBa=12.10
21/09/2022,07:47:28,TEMP=15.5,BA=5.40,STAT.A,ExtBa=12.10
21/09/2022,07:51:23,TEMP=15.5,BA=5.52,STAT.D,ExtBa=12.10
21/09/2022,07:54:23,TEMP=15.9,BA=5.52,STAT.D,ExtBa=12.10
21/09/2022,07:56:26,TEMP=16.3,BA=5.52,STAT.C,ExtBa=12.10
21/09/2022,08:21:56,TEMP=20.3,BA=5.40,STAT.A,ExtBa=12.00
21/09/2022,08:25:12,TEMP=20.4,BA=5.40,STAT.A,ExtBa=12.00
21/09/2022,08:27:24,TEMP=20.8,BA=5.40,STAT.D,ExtBa=12.00
21/09/2022,08:30:24,TEMP=20.8,BA=5.52,STAT.D,ExtBa=12.10
21/09/2022,08:32:24,TEMP=21.1,BA=5.52,STAT.A,ExtBa=12.00
21/09/2022,08:36:24,TEMP=21.0,BA=5.52,STAT.D,ExtBa=12.10
21/09/2022,08:39:24,TEMP=21.2,BA=5.52,STAT.D,ExtBa=12.10
21/09/2022,08:42:24,TEMP=21.3,BA=5.40,STAT.D,ExtBa=12.10
21/09/2022,08:45:24,TEMP=21.4,BA=5.40,STAT.D,ExtBa=12.10
21/09/2022,08:48:24,TEMP=21.5,BA=5.40,STAT.D,ExtBa=12.10
21/09/2022,08:51:04,TEMP=21.5,BA=5.40,STAT.A,ExtBa=12.10
21/09/2022,08:53:23,TEMP=21.6,BA=5.40,STAT.F,ExtBa=12.10
21/09/2022,09:06:24,TEMP=21.3,BA=5.52,STAT.D,ExtBa=12.10
21/09/2022,09:08:24,TEMP=21.7,BA=5.52,STAT.D,ExtBa=12.10
21/09/2022,09:12:24,TEMP=21.5,BA=5.40,STAT.D,ExtBa=12.10
21/09/2022,09:15:24,TEMP=21.7,BA=5.40,STAT.D,ExtBa=12.10
21/09/2022,09:22:06,TEMP=21.6,BA=5.56,STAT.D,ExtBa=12.10
21/09/2022,09:33:24,TEMP=21.8,BA=5.52,STAT.D,ExtBa=12.10
21/09/2022,09:36:24,TEMP=22.1,BA=5.52,STAT.D,ExtBa=12.10
21/09/2022,09:38:21,TEMP=22.4,BA=5.52,STAT.D,ExtBa=12.10
21/09/2022,09:51:24,TEMP=22.0,BA=5.52,STAT.D,ExtBa=12.10
21/09/2022,09:53:18,TEMP=22.4,BA=5.52,STAT.F,ExtBa=12.10
21/09/2022,09:57:24,TEMP=22.2,BA=5.52,STAT.D,ExtBa=12.10
21/09/2022,10:07:06,TEMP=22.4,BA=5.44,STAT.D,ExtBa=12.10
21/09/2022,10:09:24,TEMP=22.7,BA=5.44,STAT.D,ExtBa=12.10
21/09/2022,10:12:24,TEMP=22.6,BA=5.40,STAT.D,ExtBa=12.10
21/09/2022,10:15:24,TEMP=22.7,BA=5.40,STAT.D,ExtBa=12.10
21/09/2022,10:18:24,TEMP=22.7,BA=5.40,STAT.D,ExtBa=12.10
21/09/2022,10:21:24,TEMP=22.8,BA=5.40,STAT.D,ExtBa=12.10
21/09/2022,10:23:23,TEMP=23.1,BA=5.40,STAT.D,ExtBa=12.10
21/09/2022,10:27:24,TEMP=23.0,BA=5.40,STAT.D,ExtBa=12.10
21/09/2022,10:30:24,TEMP=23.2,BA=5.44,STAT.D,ExtBa=12.10
21/09/2022,10:33:24,TEMP=23.3,BA=5.44,STAT.D,ExtBa=12.10
21/09/2022,10:36:24,TEMP=23.5,BA=5.44,STAT.D,ExtBa=12.10
21/09/2022,10:38:23,TEMP=23.9,BA=5.44,STAT.D,ExtBa=12.10
21/09/2022,10:42:24,TEMP=23.8,BA=5.36,STAT.D,ExtBa=12.10
21/09/2022,10:45:24,TEMP=23.8,BA=5.36,STAT.D,ExtBa=12.10
21/09/2022,10:48:24,TEMP=23.8,BA=5.36,STAT.D,ExtBa=12.10
21/09/2022,10:52:08,TEMP=23.6,BA=5.40,STAT.F,ExtBa=12.10
21/09/2022,11:07:06,TEMP=22.8,BA=5.36,STAT.D,ExtBa=12.10
21/09/2022,11:18:24,TEMP=22.5,BA=5.44,STAT.D,ExtBa=12.10
21/09/2022,11:21:24,TEMP=22.8,BA=5.40,STAT.D,ExtBa=12.10
21/09/2022,11:23:21,TEMP=23.1,BA=5.40,STAT.D,ExtBa=12.10
21/09/2022,11:27:24,TEMP=22.9,BA=5.40,STAT.D,ExtBa=12.10
21/09/2022,11:30:24,TEMP=23.1,BA=5.48,STAT.D,ExtBa=12.10
21/09/2022,11:37:06,TEMP=22.9,BA=5.48,STAT.D,ExtBa=12.10
21/09/2022,11:48:24,TEMP=22.2,BA=5.44,STAT.D,ExtBa=12.10
21/09/2022,11:52:08,TEMP=22.2,BA=5.40,STAT.F,ExtBa=12.10
21/09/2022,12:03:24,TEMP=22.0,BA=5.48,STAT.D,ExtBa=12.10
21/09/2022,12:07:06,TEMP=22.0,BA=5.48,STAT.D,ExtBa=12.10
21/09/2022,12:18:24,TEMP=21.8,BA=5.44,STAT.D,ExtBa=12.10
21/09/2022,12:22:06,TEMP=21.9,BA=5.40,STAT.D,ExtBa=12.10
21/09/2022,12:33:24,TEMP=21.5,BA=5.48,STAT.D,ExtBa=12.10
21/09/2022,12:37:06,TEMP=21.5,BA=5.48,STAT.D,ExtBa=12.10
21/09/2022,12:48:24,TEMP=21.0,BA=5.44,STAT.D,ExtBa=12.10
21/09/2022,12:52:08,TEMP=21.0,BA=5.40,STAT.F,ExtBa=12.10
21/09/2022,13:03:24,TEMP=20.3,BA=5.48,STAT.D,ExtBa=12.10
21/09/2022,13:07:06,TEMP=20.3,BA=5.48,STAT.D,ExtBa=12.10
21/09/2022,13:18:24,TEMP=19.8,BA=5.44,STAT.D,ExtBa=12.10
21/09/2022,13:22:06,TEMP=19.8,BA=5.40,STAT.D,ExtBa=12.10
21/09/2022,13:33:24,TEMP=19.4,BA=5.48,STAT.D,ExtBa=12.10
21/09/2022,13:37:06,TEMP=19.5,BA=5.48,STAT.D,ExtBa=12.10
21/09/2022,13:48:24,TEMP=19.4,BA=5.48,STAT.D,ExtBa=12.10
21/09/2022,13:52:08,TEMP=19.5,BA=5.40,STAT.F,ExtBa=12.10
21/09/2022,14:03:24,TEMP=19.4,BA=5.52,STAT.D,ExtBa=12.10
21/09/2022,14:07:06,TEMP=19.6,BA=5.52,STAT.D,ExtBa=12.10
21/09/2022,14:18:24,TEMP=19.6,BA=5.48,STAT.D,ExtBa=12.10
21/09/2022,14:22:06,TEMP=19.7,BA=5.40,STAT.D,ExtBa=12.10
21/09/2022,14:33:24,TEMP=19.7,BA=5.52,STAT.D,ExtBa=12.10
21/09/2022,14:37:06,TEMP=19.9,BA=5.52,STAT.D,ExtBa=12.10
21/09/2022,14:48:24,TEMP=19.9,BA=5.48,STAT.D,ExtBa=12.10
21/09/2022,14:52:07,TEMP=20.0,BA=5.40,STAT.F,ExtBa=12.10
21/09/2022,14:54:06,TEMP=20.3,BA=5.40,STAT.A,ExtBa=12.10
21/09/2022,15:06:24,TEMP=19.7,BA=5.52,STAT.D,ExtBa=12.10
21/09/2022,15:11:59,TEMP=19.7,BA=5.56,STAT.A,ExtBa=12.10
21/09/2022,15:24:24,TEMP=19.6,BA=5.52,STAT.D,ExtBa=12.10
21/09/2022,15:26:55,TEMP=19.9,BA=5.52,STAT.A,ExtBa=12.10
21/09/2022,15:39:10,TEMP=19.6,BA=5.52,STAT.A,ExtBa=12.10
21/09/2022,15:49:28,TEMP=19.4,BA=5.40,STAT.C,ExtBa=12.10
21/09/2022,15:58:14,TEMP=19.3,BA=5.40,STAT.A,ExtBa=12.10
21/09/2022,16:05:50,TEMP=19.1,BA=5.40,STAT.A,ExtBa=12.10
21/09/2022,16:09:23,TEMP=19.3,BA=5.40,STAT.D,ExtBa=12.10
21/09/2022,16:12:23,TEMP=19.7,BA=5.40,STAT.D,ExtBa=12.10
21/09/2022,16:14:32,TEMP=20.1,BA=5.40,STAT.A,ExtBa=12.10
21/09/2022,16:21:07,TEMP=20.1,BA=5.40,STAT.A,ExtBa=12.10
21/09/2022,16:23:35,TEMP=20.4,BA=5.40,STAT.B,ExtBa=12.10
21/09/2022,16:33:23,TEMP=20.6,BA=5.36,STAT.D,ExtBa=12.10
21/09/2022,16:35:29,TEMP=20.8,BA=5.36,STAT.A,ExtBa=12.00
21/09/2022,16:39:23,TEMP=20.4,BA=5.36,STAT.D,ExtBa=12.10
21/09/2022,16:42:23,TEMP=20.3,BA=5.36,STAT.D,ExtBa=12.00
21/09/2022,16:44:29,TEMP=20.5,BA=5.36,STAT.A,ExtBa=12.00
21/09/2022,16:50:57,TEMP=19.9,BA=5.36,STAT.D,ExtBa=12.10
21/09/2022,16:53:01,TEMP=20.2,BA=5.36,STAT.A,ExtBa=12.00
21/09/2022,17:02:13,TEMP=19.0,BA=5.36,STAT.D,ExtBa=12.10
21/09/2022,17:04:12,TEMP=19.3,BA=5.36,STAT.A,ExtBa=12.00
21/09/2022,17:06:24,TEMP=19.2,BA=5.36,STAT.A,ExtBa=12.00